User: anonymous   Login
Location: Unspecified
(0.0000°N, 0.0000°E)
Time: 04:05:09
(UTC+00:00)
Language:

BEESAT 3 - Orbit

View from above orbital plane
View from above orbital plane
View from above satellite
View from above satellite

Ground track
Ground track

The orbit data is extracted from the following two-line orbital elements,

1 39134U 13015E   18022.56413059  .00001313  00000-0  72054-4 0  9996
2 39134  64.8625 237.8227 0028777 229.7104 130.1507 15.18735412262789
Epoch (UTC): 22 January 2018 13:32:20
Eccentricity: 0.0028777
inclination: 64.8625°
perigee height: 490 km
apogee height: 529 km
right ascension of ascending node: 237.8227°
argument of perigee: 229.7104°
revolutions per day: 15.18735412
mean anomaly at epoch: 130.1507°
orbit number at epoch: 26278

The dashed part of the orbit path shows where the satellite is in the earth's shadow,  

DLR